Location: Recife
(8.0585°S, 34.8848°W)
Time: 12:16:31
(UTC-03:00)

Courier 1B - Pass Details

Date: 17 April 2026
Orbit: 962 x 1209 km, 28.3° (Epoch: 7 May)

Event Time Altitude Azimuth Distance (km) Brightness Sun altitude
Rises 15:02:40 0° 250° (WSW) 3,943 11.4 31.3°
Reaches altitude 10° 15:05:36 10° 254° (WSW) 2,945 11.0 30.6°
Maximum altitude 15:12:32 52° 329° (NNW) 1,272 9.1 29.0°
Drops below altitude 10° 15:19:04 10° 44° (NE) 2,765 9.7 27.4°
Sets 15:21:45 0° 49° (NE) 3,685 10.2 26.8°
